Weather History for Andravida, Greece

Change the Weather History Date:

Friday, October 4, 2013

  Actual Average Record
Temperature  
Mean Temperature 62 °F -  
Max Temperature 74 °F 72 °F 82 °F (2003)
Min Temperature 51 °F 53 °F 51 °F (2007)
Degree Days  
Heating Degree Days 2    
Growing Degree Days 12 (Base 50)    
Moisture  
Dew Point 48 °F    
Average Humidity 57    
Maximum Humidity 88    
Minimum Humidity 29    
Precipitation  
Precipitation 0.00 in - - ()
Sea Level Pressure  
Sea Level Pressure 30.21 in    
Wind  
Wind Speed 2 mph ()    
Max Wind Speed 9 mph    
Max Gust Speed -    
Visibility 6.2 miles    
Events      
Averages and records for this station are not official NWS values.
T = Trace of Precipitation, MM = Missing Value Source: Averaged Metar Reports

Daily Weather History Graph

Daily Weather History Graph

Search for Another Location

Airport:

Trip Planner

Search our weather history database for the weather conditions in past years. The results will help you decide how hot, cold, wet, or windy it might be!

Date:

Astronomy

Oct. 04, 2013 Rise Set
Actual Time 7:33 AM EEST 7:13 PM EEST
Civil Twilight 7:06 AM EEST 7:39 PM EEST
Nautical Twilight 6:36 AM EEST 8:09 PM EEST
Astronomical Twilight 6:05 AM EEST 8:40 PM EEST
Moon 6:49 AM EEST (10/4) 6:45 PM EEST (10/4)
Length of Visible Light 12h 32m
Length of Day
11h 40m
Waning Crescent, 1% of the Moon is Illuminated
Oct 4
Waning Crescent
Oct 5
New
Oct 12
First Quarter
Oct 19
Full
Oct 27
Last Quarter

Hourly Weather History & Observations

Time (EEST) Temp. Dew Point Humidity Pressure Visibility Wind Dir Wind Speed Gust Speed Precip Events Conditions
12:20 AM 60.8 °F 50.0 °F 68% 30.15 in 6.2 mi Calm Calm - N/A   Partly Cloudy
12:50 AM 59.0 °F 50.0 °F 72% 30.15 in 6.2 mi Calm Calm - N/A   Partly Cloudy
1:20 AM 59.0 °F 50.0 °F 72% 30.15 in 6.2 mi Calm Calm - N/A   Partly Cloudy
1:50 AM 59.0 °F 51.8 °F 77% 30.15 in 6.2 mi Calm Calm - N/A   Partly Cloudy
2:50 AM 53.6 °F 48.2 °F 82% 30.18 in 6.2 mi Calm Calm - N/A   Partly Cloudy
3:00 AM 54 °F 49 °F 77% 30.19 in 6 mi Calm Calm - -   Scattered Clouds
3:20 AM 53.6 °F 48.2 °F 82% 30.18 in 6.2 mi Calm Calm - N/A   Partly Cloudy
5:50 AM 51.8 °F 48.2 °F 88% 30.18 in 6.2 mi Calm Calm - N/A   Partly Cloudy
6:20 AM 53.6 °F 48.2 °F 82% 30.18 in 6.2 mi Calm Calm - N/A   Partly Cloudy
7:20 AM 51.8 °F 48.2 °F 88% 30.18 in 6.2 mi Calm Calm - N/A   Partly Cloudy
7:50 AM 51.8 °F 48.2 °F 88% 30.18 in 6.2 mi Calm Calm - N/A   Partly Cloudy
8:20 AM 53.6 °F 48.2 °F 82% 30.21 in 6.2 mi Calm Calm - N/A   Partly Cloudy
8:50 AM 59.0 °F 53.6 °F 82% 30.21 in 6.2 mi ENE 4.6 mph - N/A   Partly Cloudy
9:20 AM 62.6 °F 53.6 °F 72% 30.21 in 6.2 mi NNW 4.6 mph - N/A   Partly Cloudy
9:50 AM 66.2 °F 51.8 °F 60% 30.21 in 6.2 mi Calm Calm - N/A   Partly Cloudy
10:20 AM 68.0 °F 51.8 °F 56% 30.21 in 6.2 mi North 4.6 mph - N/A   Partly Cloudy
10:50 AM 71.6 °F 50.0 °F 46% 30.21 in 6.2 mi Calm Calm - N/A   Partly Cloudy
11:20 AM 71.6 °F 50.0 °F 46% 30.24 in 6.2 mi Calm Calm - N/A   Partly Cloudy
11:50 AM 73.4 °F 48.2 °F 41% 30.24 in 6.2 mi Calm Calm - N/A   Partly Cloudy
12:20 PM 71.6 °F 48.2 °F 43% 30.24 in 6.2 mi Calm Calm - N/A   Partly Cloudy
12:50 PM 73.4 °F 50.0 °F 44% 30.24 in 6.2 mi NW 8.1 mph - N/A   Scattered Clouds
1:20 PM 73.4 °F 48.2 °F 41% 30.24 in 6.2 mi WNW 8.1 mph - N/A   Scattered Clouds
1:50 PM 73.4 °F 48.2 °F 41% 30.21 in 6.2 mi NW 9.2 mph - N/A   Scattered Clouds
2:20 PM 75.2 °F 46.4 °F 36% 30.21 in 6.2 mi NW 6.9 mph - N/A   Scattered Clouds
2:50 PM 75.2 °F 48.2 °F 38% 30.21 in 6.2 mi WNW 8.1 mph - N/A   Scattered Clouds
3:00 PM 74 °F 48 °F 29% 30.23 in 6 mi WNW 8.1 mph - -   Partly Cloudy
3:20 PM 75.2 °F 46.4 °F 36% 30.21 in 6.2 mi NNW 5.8 mph - N/A   Scattered Clouds
3:50 PM 75.2 °F 42.8 °F 31% 30.21 in 6.2 mi North 8.1 mph - N/A   Partly Cloudy
4:20 PM 73.4 °F 42.8 °F 33% 30.21 in 6.2 mi NNW 6.9 mph - N/A   Partly Cloudy
4:50 PM 71.6 °F 42.8 °F 35% 30.21 in 6.2 mi NW 6.9 mph - N/A   Partly Cloudy
5:20 PM 71.6 °F 42.8 °F 35% 30.21 in 6.2 mi NW 6.9 mph - N/A   Partly Cloudy
5:50 PM 73.4 °F 44.6 °F 36% 30.21 in 6.2 mi NW 8.1 mph - N/A   Partly Cloudy
6:20 PM 73.4 °F 44.6 °F 36% 30.21 in 6.2 mi NW 8.1 mph - N/A   Partly Cloudy
6:50 PM 71.6 °F 44.6 °F 38% 30.21 in 6.2 mi NNW 5.8 mph - N/A   Partly Cloudy
7:20 PM 68.0 °F 46.4 °F 46% 30.21 in 6.2 mi NNE 4.6 mph - N/A   Partly Cloudy
7:50 PM 64.4 °F 48.2 °F 56% 30.21 in 6.2 mi Calm Calm - N/A   Partly Cloudy
8:20 PM 62.6 °F 48.2 °F 59% 30.21 in 6.2 mi NNE 5.8 mph - N/A   Partly Cloudy
8:50 PM 62.6 °F 48.2 °F 59% 30.21 in 6.2 mi NNE 6.9 mph - N/A   Partly Cloudy
9:00 PM 62 °F 49 °F 52% 30.24 in 6 mi NNE 6.9 mph - -   Scattered Clouds
9:20 PM 62.6 °F 48.2 °F 59% 30.24 in 6.2 mi NNE 6.9 mph - N/A   Partly Cloudy
9:50 PM 62.6 °F 50.0 °F 63% 30.24 in 6.2 mi NNE 6.9 mph - N/A   Partly Cloudy
10:20 PM 62.6 °F 50.0 °F 63% 30.24 in 6.2 mi NNE 6.9 mph - N/A   Partly Cloudy
10:50 PM 60.8 °F 50.0 °F 68% 30.24 in 6.2 mi NE 5.8 mph - N/A   Partly Cloudy
11:50 PM 59.0 °F 48.2 °F 67% 30.24 in 6.2 mi Calm Calm - N/A   Partly Cloudy